sat.trackr.live / text

‹ back to catalog

TEIKYOSAT-4 (OORURI)

NORAD 49396 · 2021-102B

PAYLOAD ACTIVE UNKNOWN

§ Identity

Operator
Country
JPN
Launch date
2021-11-09
Launch site
KSCUT
Launch vehicle
Mass (kg)
RCS (m²)

External: N2YO · Heavens-Above · Gunter

§ Orbital elements

Epoch: 2026-09-14T01:43:49.502208Z

Period
95.38 min
Inclination
97.3629°
Eccentricity
0.0011702
Mean motion
15.09771114 rev/d
Perigee alt
528.8 km
Apogee alt
545.0 km
Semi-major
6,915.0 km
B*
8.9264e-5
RAAN
283.0948°
Arg perigee
355.1823°
Mean anomaly
4.9292°
Rev number
26,613

§ Raw data

TEIKYOSAT-4 (OORURI)1 49396U 21102B   26257.07210072  .00001382  00000+0  89264-4 0  99942 49396  97.3629 283.0948 0011702 355.1823   4.9292 15.09771114266131

JSON: /api/v1/satellites/49396 · /tle

For live sub-satellite position, see the globe view (requires WebGL).

§ Visibility from observer

Set your observer location to see the next 7 days of passes ≥ 10°. The values pass through the URL so the page stays shareable.

No JS? Fill the form by hand. The geolocation button needs JavaScript.

§ Radio — SatNOGS DB

ModeDescriptionDownlinkUplink
FSK Mode S - FSK115k2 5.831 GHz
AFSK Mode U - AFSK1k2 437.450 MHz
CW Mode U - CW Beacon 437.450 MHz
GMSK Mode U - GMSK9k6 437.450 MHz
SSTV Mode U - SSTV 437.450 MHz

5 transmitters · refreshed weekly from db.satnogs.org